Regional Weather Roundup
Issued by NWS Newport/Morehead, NC

Current Version | Previous Version | Graphics & Text | Print | Product List | Glossary On
Versions: 1 2 3 4 5 6 7 8 9 10 11 12 13 14 15 16 17 18 19 20 21 22 23 24 25 26 27 28 29 30 31 32 33 34 35 36 37 38 39 40 41 42 43 44 45 46 47 48 49 50
000 ASUS42 KMHX 200813 RWRMHX WEATHER ROUNDUP FOR EASTERN NORTH CAROLINA NATIONAL WEATHER SERVICE NEWPORT/MOREHEAD CITY NC 400 AM EDT FRI OCT 20 2017 NOTE: "FAIR" INDICATES FEW OR NO CLOUDS BELOW 12,000 FEET WITH NO SIGNIFICANT WEATHER AND/OR OBSTRUCTIONS TO VISIBILITY NCZ015>017-031-032-045>047-102-103-200900- NORTH COAST CITY SKY/WX TMP DP RH WIND PRES REMARKS EDENTON FAIR 55 53 95 CALM 30.20R ELIZABETH CITY FOG 51 51 100 SW5 30.19S VSB 1/2 KITTY HAWK FAIR N/A N/A N/A CALM 30.18S MANTEO FAIR N/A N/A N/A CALM 30.19S $$ NCZ045>047-081-094-103-104-200900- CENTRAL COAST CITY SKY/WX TMP DP RH WIND PRES REMARKS FRISCO FAIR 56 55 97 CALM 30.19S $$ NCZ095-097-098-100-101-200900- SOUTHERN COAST CITY SKY/WX TMP DP RH WIND PRES REMARKS BEAUFORT FAIR 54 54 100 CALM 30.20S CEDAR ISLAND NOT AVBL JACKSONVILLE FAIR 54 54 100 CALM 30.20S PINEY ISLAND N/A N/A N/A N/A W5 30.19S WILMINGTON FAIR 56 55 97 CALM 30.20F $$ NCZ011>013-027>030-043-044-078>080-089-090>093-098-200900- COASTAL PLAIN CITY SKY/WX TMP DP RH WIND PRES REMARKS AHOSKIE FOG 45 45 100 CALM 30.19F VSB 1/2 CLINTON FAIR 50 50 100 CALM 30.21S ELIZABETHTOWN NOT AVBL GOLDSBORO FAIR 51 48 90 CALM 30.19S GREENVILLE FOG 50 50 100 CALM 30.21S VSB 3/4 HAVELOCK FAIR 54 54 100 CALM 30.21S KENANSVILLE FAIR 48 48 100 CALM 30.22R KINSTON FOG 46 45 97 CALM 30.21S VSB 1 NEW BERN FAIR 54 54 100 CALM 30.21S RICHLANDS FAIR 49 49 100 CALM 30.21S ROCKY MOUNT FOG 48 48 100 CALM 30.20S VSB 3/4 WASHINGTON FAIR 52 51 97 CALM 30.20F FOG WHITEVILLE FAIR 53 53 97 CALM 30.21S $$ AMZ130-135-150-152-154-156-158-170-250-252-270-ANZ085-086-088-633-658-670-200900- MARINE OBSERVATIONS STATION/POSITION TIME TEMP WIND PRES WAVE SWELL AIR SEA DIR/SP/G HT/PER HT/PER (UTC) (F) (DEG/KT/KT) (MB) (FT/S) (FT/S) CHESAPEAKE LIGHT NOT AVBL 64 E VA BEACH 0750 68 67 250/ 6/ 8 1022.1 3/ 9 3/ 9 DUCK 0748 65 70 240/ 6/ 6 1021.6 2 E DUCK 0800 69 N/A 2/ 9 OREGON INLET 0742 63 69 290/ 3/ 5 1022.0 13E OREGON INLT 0748 71 N/A 3/ 8 3/ 8 HATTERAS CG 0748 66 70 320/ 1/ 2 1021.9 DIAMOND BUOY 0750 73 81 320/ 8/ 12 1021.9 3/ 8 3/ 8 CAPE LOOKOUT 0800 65 350/ 5/ 6 1022.1 BEAUFORT LAB 0748 63 70 350/ 4/ 5 1022.6 30 SE NEW RVR IN 0708 74 10/ 4/ 6 1022.2 30 SE NEW RVR IN NOT AVBL 27 SE WRIGHTSVLE 0708 72 76 350/ 8/ 12 1022.4 5 SE WRIGHTSVLE 0708 71 74 10/ 12/ 17 1022.4 225 S CAPE HAT 0750 77 80 40/ 12/ 16 1019.3 6/ 8 5/ 8 41 SE CHARLESTON 0750 76 79 40/ 10/ 12 1021.3 5/ 8 5/ 8 $$

USA.gov is the U.S. government's official web portal to all federal, state and local government web resources and services.